owner,sensor,date,latitude,longitude,vertical_datum,sea_water_practical_salinity,qcFlag 
NERRS,ioos:station:NOAA.NERRS:marscwq:1,2014-04-01T00:30:00Z,27.8383,-97.0503,5.16,29.8,1111122 
NERRS,ioos:station:NOAA.NERRS:marscwq:1,2014-04-01T01:30:00Z,27.8383,-97.0503,5.09,30.0,1111122 
NERRS,ioos:station:NOAA.NERRS:marscwq:1,2014-04-01T04:30:00Z,27.8383,-97.0503,5.11,30.5,1111122 
NERRS,ioos:station:NOAA.NERRS:marscwq:1,2014-04-01T06:30:00Z,27.8383,-97.0503,5.27,30.3,1111122 
NERRS,ioos:station:NOAA.NERRS:marscwq:1,2014-04-01T08:30:00Z,27.8383,-97.0503,5.4,30.4,1111122 
NERRS,ioos:station:NOAA.NERRS:marscwq:1,2014-04-01T09:30:00Z,27.8383,-97.0503,5.42,29.8,1111122 
NERRS,ioos:station:NOAA.NERRS:marscwq:1,2014-04-01T11:30:00Z,27.8383,-97.0503,5.43,29.4,1111122 
NERRS,ioos:station:NOAA.NERRS:marscwq:1,2014-04-01T12:30:00Z,27.8383,-97.0503,5.39,29.4,1111122 
NERRS,ioos:station:NOAA.NERRS:marscwq:1,2014-04-01T13:30:00Z,27.8383,-97.0503,5.4,29.4,1111122 
NERRS,ioos:station:NOAA.NERRS:marscwq:1,2014-04-01T14:30:00Z,27.8383,-97.0503,5.38,29.4,1111122 
NERRS,ioos:station:NOAA.NERRS:marscwq:1,2014-04-01T15:30:00Z,27.8383,-97.0503,5.37,29.4,1111122 
NERRS,ioos:station:NOAA.NERRS:marscwq:1,2014-04-01T16:30:00Z,27.8383,-97.0503,5.34,29.4,1111122 
NERRS,ioos:station:NOAA.NERRS:marscwq:1,2014-04-01T17:30:00Z,27.8383,-97.0503,5.34,29.3,1111122 
NERRS,ioos:station:NOAA.NERRS:marscwq:1,2014-04-01T18:30:00Z,27.8383,-97.0503,5.33,29.4,1111122 
NERRS,ioos:station:NOAA.NERRS:marscwq:1,2014-04-01T19:30:00Z,27.8383,-97.0503,5.34,29.4,1111122 
NERRS,ioos:station:NOAA.NERRS:marscwq:1,2014-04-01T21:30:00Z,27.8383,-97.0503,5.29,29.4,1111122 
NERRS,ioos:station:NOAA.NERRS:marscwq:1,2014-04-01T22:30:00Z,27.8383,-97.0503,5.28,29.4,1111122 
NERRS,ioos:station:NOAA.NERRS:marscwq:1,2014-04-01T23:30:00Z,27.8383,-97.0503,5.17,29.3,1111122 
NERRS,ioos:station:NOAA.NERRS:marscwq:1,2014-04-02T00:30:00Z,27.8383,-97.0503,5.14,29.4,1111122 
NERRS,ioos:station:NOAA.NERRS:marscwq:1,2014-04-02T01:30:00Z,27.8383,-97.0503,5.02,29.7,1111122 
NERRS,ioos:station:NOAA.NERRS:marscwq:1,2014-04-02T03:30:00Z,27.8383,-97.0503,4.99,30.5,1111122 
NERRS,ioos:station:NOAA.NERRS:marscwq:1,2014-04-02T04:30:00Z,27.8383,-97.0503,5.0,30.6,1111122 
NERRS,ioos:station:NOAA.NERRS:marscwq:1,2014-04-02T05:30:00Z,27.8383,-97.0503,5.05,30.4,1111122 
NERRS,ioos:station:NOAA.NERRS:marscwq:1,2014-04-02T06:30:00Z,27.8383,-97.0503,5.09,30.5,1111122 
NERRS,ioos:station:NOAA.NERRS:marscwq:1,2014-04-02T08:30:00Z,27.8383,-97.0503,5.23,30.9,1111122 
NERRS,ioos:station:NOAA.NERRS:marscwq:1,2014-04-02T09:30:00Z,27.8383,-97.0503,5.36,30.4,1111122 
NERRS,ioos:station:NOAA.NERRS:marscwq:1,2014-04-02T10:30:00Z,27.8383,-97.0503,5.34,29.8,1111122 
NERRS,ioos:station:NOAA.NERRS:marscwq:1,2014-04-02T11:30:00Z,27.8383,-97.0503,5.36,29.7,1111122 
NERRS,ioos:station:NOAA.NERRS:marscwq:1,2014-04-02T12:30:00Z,27.8383,-97.0503,5.36,29.6,1111122 
NERRS,ioos:station:NOAA.NERRS:marscwq:1,2014-04-02T14:30:00Z,27.8383,-97.0503,5.35,29.6,1111122 
NERRS,ioos:station:NOAA.NERRS:marscwq:1,2014-04-02T15:30:00Z,27.8383,-97.0503,5.36,29.8,1111122 
NERRS,ioos:station:NOAA.NERRS:marscwq:1,2014-04-02T16:30:00Z,27.8383,-97.0503,5.28,29.7,1111122 
NERRS,ioos:station:NOAA.NERRS:marscwq:1,2014-04-02T17:30:00Z,27.8383,-97.0503,5.28,29.6,1111122 
NERRS,ioos:station:NOAA.NERRS:marscwq:1,2014-04-02T18:30:00Z,27.8383,-97.0503,5.24,29.5,1111122 
NERRS,ioos:station:NOAA.NERRS:marscwq:1,2014-04-02T19:30:00Z,27.8383,-97.0503,5.27,29.5,1111122 
NERRS,ioos:station:NOAA.NERRS:marscwq:1,2014-04-02T20:30:00Z,27.8383,-97.0503,5.25,29.6,1111122 
NERRS,ioos:station:NOAA.NERRS:marscwq:1,2014-04-02T21:30:00Z,27.8383,-97.0503,5.22,29.6,1111122 
NERRS,ioos:station:NOAA.NERRS:marscwq:1,2014-04-02T23:30:00Z,27.8383,-97.0503,5.14,29.6,1111122 
NERRS,ioos:station:NOAA.NERRS:marscwq:1,2014-04-03T01:30:00Z,27.8383,-97.0503,5.02,29.6,1111122 
NERRS,ioos:station:NOAA.NERRS:marscwq:1,2014-04-03T02:30:00Z,27.8383,-97.0503,4.98,30.0,1111122 
NERRS,ioos:station:NOAA.NERRS:marscwq:1,2014-04-03T03:30:00Z,27.8383,-97.0503,4.9,30.6,1111122 
NERRS,ioos:station:NOAA.NERRS:marscwq:1,2014-04-03T04:30:00Z,27.8383,-97.0503,4.87,30.9,1111122 
NERRS,ioos:station:NOAA.NERRS:marscwq:1,2014-04-03T05:30:00Z,27.8383,-97.0503,4.9,30.9,1111122 
NERRS,ioos:station:NOAA.NERRS:marscwq:1,2014-04-03T06:30:00Z,27.8383,-97.0503,4.98,30.2,1111122 
NERRS,ioos:station:NOAA.NERRS:marscwq:1,2014-04-03T07:30:00Z,27.8383,-97.0503,5.0,30.2,1111122 
NERRS,ioos:station:NOAA.NERRS:marscwq:1,2014-04-03T09:30:00Z,27.8383,-97.0503,5.2,31.3,1111122 
NERRS,ioos:station:NOAA.NERRS:marscwq:1,2014-04-03T11:30:00Z,27.8383,-97.0503,5.29,30.2,1111122 
NERRS,ioos:station:NOAA.NERRS:marscwq:1,2014-04-03T13:30:00Z,27.8383,-97.0503,5.3,29.8,1111122 
NERRS,ioos:station:NOAA.NERRS:marscwq:1,2014-04-03T15:30:00Z,27.8383,-97.0503,5.31,29.8,1111122 
NERRS,ioos:station:NOAA.NERRS:marscwq:1,2014-04-03T16:30:00Z,27.8383,-97.0503,5.31,29.9,1111122 
NERRS,ioos:station:NOAA.NERRS:marscwq:1,2014-04-03T17:30:00Z,27.8383,-97.0503,5.27,29.9,1111122 
NERRS,ioos:station:NOAA.NERRS:marscwq:1,2014-04-03T18:30:00Z,27.8383,-97.0503,5.28,29.9,1111122 
NERRS,ioos:station:NOAA.NERRS:marscwq:1,2014-04-03T19:30:00Z,27.8383,-97.0503,5.3,29.9,1111122 
NERRS,ioos:station:NOAA.NERRS:marscwq:1,2014-04-03T20:30:00Z,27.8383,-97.0503,5.1,29.9,1111122 
NERRS,ioos:station:NOAA.NERRS:marscwq:1,2014-04-03T22:30:00Z,27.8383,-97.0503,5.27,29.9,1111122 
NERRS,ioos:station:NOAA.NERRS:marscwq:1,2014-04-03T23:30:00Z,27.8383,-97.0503,5.26,29.8,1111122 
NERRS,ioos:station:NOAA.NERRS:marscwq:1,2014-04-04T00:30:00Z,27.8383,-97.0503,5.22,29.9,1111122 
NERRS,ioos:station:NOAA.NERRS:marscwq:1,2014-04-04T01:30:00Z,27.8383,-97.0503,5.19,29.9,1111122 
NERRS,ioos:station:NOAA.NERRS:marscwq:1,2014-04-04T03:30:00Z,27.8383,-97.0503,5.04,29.9,1111122 
NERRS,ioos:station:NOAA.NERRS:marscwq:1,2014-04-04T05:30:00Z,27.8383,-97.0503,4.93,29.9,1111122 
NERRS,ioos:station:NOAA.NERRS:marscwq:1,2014-04-04T07:00:00Z,27.8383,-97.0503,5.05,30.3,1111122 
NERRS,ioos:station:NOAA.NERRS:marscwq:1,2014-04-04T07:30:00Z,27.8383,-97.0503,5.04,30.0,1111122 
NERRS,ioos:station:NOAA.NERRS:marscwq:1,2014-04-04T08:30:00Z,27.8383,-97.0503,5.12,30.3,1111122 
NERRS,ioos:station:NOAA.NERRS:marscwq:1,2014-04-04T09:30:00Z,27.8383,-97.0503,5.26,29.8,1111122 
NERRS,ioos:station:NOAA.NERRS:marscwq:1,2014-04-04T10:30:00Z,27.8383,-97.0503,5.32,30.3,1111122 
NERRS,ioos:station:NOAA.NERRS:marscwq:1,2014-04-04T11:30:00Z,27.8383,-97.0503,5.31,30.4,1111122 
NERRS,ioos:station:NOAA.NERRS:marscwq:1,2014-04-04T13:30:00Z,27.8383,-97.0503,5.45,28.8,1111122 
NERRS,ioos:station:NOAA.NERRS:marscwq:1,2014-04-04T14:30:00Z,27.8383,-97.0503,5.48,28.9,1111122 
NERRS,ioos:station:NOAA.NERRS:marscwq:1,2014-04-04T15:30:00Z,27.8383,-97.0503,5.34,28.8,1111122 
NERRS,ioos:station:NOAA.NERRS:marscwq:1,2014-04-04T16:30:00Z,27.8383,-97.0503,5.42,29.4,1111122 
NERRS,ioos:station:NOAA.NERRS:marscwq:1,2014-04-04T17:30:00Z,27.8383,-97.0503,5.44,29.5,1111122 
NERRS,ioos:station:NOAA.NERRS:marscwq:1,2014-04-04T19:30:00Z,27.8383,-97.0503,5.43,29.5,1111122 
NERRS,ioos:station:NOAA.NERRS:marscwq:1,2014-04-04T20:30:00Z,27.8383,-97.0503,5.42,29.4,1111122 
NERRS,ioos:station:NOAA.NERRS:marscwq:1,2014-04-04T21:30:00Z,27.8383,-97.0503,5.36,29.0,1111122 
NERRS,ioos:station:NOAA.NERRS:marscwq:1,2014-04-04T22:30:00Z,27.8383,-97.0503,5.38,29.4,1111122 
NERRS,ioos:station:NOAA.NERRS:marscwq:1,2014-04-04T23:30:00Z,27.8383,-97.0503,5.36,29.4,1111122 
NERRS,ioos:station:NOAA.NERRS:marscwq:1,2014-04-05T00:30:00Z,27.8383,-97.0503,5.35,29.4,1111122 
NERRS,ioos:station:NOAA.NERRS:marscwq:1,2014-04-05T01:30:00Z,27.8383,-97.0503,5.21,29.5,1111122 
NERRS,ioos:station:NOAA.NERRS:marscwq:1,2014-04-05T02:30:00Z,27.8383,-97.0503,5.19,29.5,1111122 
NERRS,ioos:station:NOAA.NERRS:marscwq:1,2014-04-05T03:30:00Z,27.8383,-97.0503,5.13,29.5,1111122 
NERRS,ioos:station:NOAA.NERRS:marscwq:1,2014-04-05T04:30:00Z,27.8383,-97.0503,5.13,29.5,1111122 
NERRS,ioos:station:NOAA.NERRS:marscwq:1,2014-04-05T05:30:00Z,27.8383,-97.0503,5.08,29.7,1111122 
NERRS,ioos:station:NOAA.NERRS:marscwq:1,2014-04-05T06:30:00Z,27.8383,-97.0503,5.05,30.0,1111122 
NERRS,ioos:station:NOAA.NERRS:marscwq:1,2014-04-05T07:30:00Z,27.8383,-97.0503,5.1,30.0,1111122 
NERRS,ioos:station:NOAA.NERRS:marscwq:1,2014-04-05T08:30:00Z,27.8383,-97.0503,5.13,29.6,1111122 
NERRS,ioos:station:NOAA.NERRS:marscwq:1,2014-04-05T09:30:00Z,27.8383,-97.0503,5.12,29.9,1111122 
NERRS,ioos:station:NOAA.NERRS:marscwq:1,2014-04-05T10:30:00Z,27.8383,-97.0503,5.28,29.7,1111122 
NERRS,ioos:station:NOAA.NERRS:marscwq:1,2014-04-05T11:30:00Z,27.8383,-97.0503,5.31,29.8,1111122 
NERRS,ioos:station:NOAA.NERRS:marscwq:1,2014-04-05T12:30:00Z,27.8383,-97.0503,5.4,29.4,1111122 
NERRS,ioos:station:NOAA.NERRS:marscwq:1,2014-04-05T13:30:00Z,27.8383,-97.0503,5.4,28.4,1111122 
NERRS,ioos:station:NOAA.NERRS:marscwq:1,2014-04-05T14:30:00Z,27.8383,-97.0503,5.39,28.3,1111122 
NERRS,ioos:station:NOAA.NERRS:marscwq:1,2014-04-05T15:30:00Z,27.8383,-97.0503,5.4,28.2,1111122 
NERRS,ioos:station:NOAA.NERRS:marscwq:1,2014-04-05T16:30:00Z,27.8383,-97.0503,5.39,27.9,1111122 
NERRS,ioos:station:NOAA.NERRS:marscwq:1,2014-04-05T17:30:00Z,27.8383,-97.0503,5.42,28.1,1111122 
NERRS,ioos:station:NOAA.NERRS:marscwq:1,2014-04-05T18:30:00Z,27.8383,-97.0503,5.39,28.4,1111122 
NERRS,ioos:station:NOAA.NERRS:marscwq:1,2014-04-05T19:30:00Z,27.8383,-97.0503,5.38,28.4,1111122 
NERRS,ioos:station:NOAA.NERRS:marscwq:1,2014-04-05T20:30:00Z,27.8383,-97.0503,5.33,27.9,1111122 
NERRS,ioos:station:NOAA.NERRS:marscwq:1,2014-04-05T21:30:00Z,27.8383,-97.0503,5.37,28.3,1111122 
NERRS,ioos:station:NOAA.NERRS:marscwq:1,2014-04-05T22:30:00Z,27.8383,-97.0503,5.41,28.2,1111122 
NERRS,ioos:station:NOAA.NERRS:marscwq:1,2014-04-05T23:30:00Z,27.8383,-97.0503,5.4,27.9,1111122 
NERRS,ioos:station:NOAA.NERRS:marscwq:1,2014-04-06T00:30:00Z,27.8383,-97.0503,5.38,27.9,1111122 
NERRS,ioos:station:NOAA.NERRS:marscwq:1,2014-04-06T01:30:00Z,27.8383,-97.0503,5.34,28.0,1111122 
NERRS,ioos:station:NOAA.NERRS:marscwq:1,2014-04-06T02:30:00Z,27.8383,-97.0503,5.31,28.3,1111122 
NERRS,ioos:station:NOAA.NERRS:marscwq:1,2014-04-06T03:30:00Z,27.8383,-97.0503,5.28,27.7,1111122 
NERRS,ioos:station:NOAA.NERRS:marscwq:1,2014-04-06T04:30:00Z,27.8383,-97.0503,5.24,28.3,1111122 
NERRS,ioos:station:NOAA.NERRS:marscwq:1,2014-04-06T05:30:00Z,27.8383,-97.0503,5.17,28.5,1111122 
NERRS,ioos:station:NOAA.NERRS:marscwq:1,2014-04-06T06:30:00Z,27.8383,-97.0503,5.08,28.4,1111122 
NERRS,ioos:station:NOAA.NERRS:marscwq:1,2014-04-06T07:30:00Z,27.8383,-97.0503,5.14,27.5,1111122 
NERRS,ioos:station:NOAA.NERRS:marscwq:1,2014-04-06T08:30:00Z,27.8383,-97.0503,5.17,28.4,1111122 
NERRS,ioos:station:NOAA.NERRS:marscwq:1,2014-04-06T10:30:00Z,27.8383,-97.0503,5.27,28.4,1111122 
NERRS,ioos:station:NOAA.NERRS:marscwq:1,2014-04-06T12:30:00Z,27.8383,-97.0503,5.33,28.6,1111122 
NERRS,ioos:station:NOAA.NERRS:marscwq:1,2014-04-06T14:00:00Z,27.8383,-97.0503,5.4,27.8,1111122 
NERRS,ioos:station:NOAA.NERRS:marscwq:1,2014-04-06T14:30:00Z,27.8383,-97.0503,5.36,27.3,1111122 
NERRS,ioos:station:NOAA.NERRS:marscwq:1,2014-04-06T15:30:00Z,27.8383,-97.0503,5.43,27.3,1111122 
NERRS,ioos:station:NOAA.NERRS:marscwq:1,2014-04-06T16:30:00Z,27.8383,-97.0503,5.39,27.7,1111122 
NERRS,ioos:station:NOAA.NERRS:marscwq:1,2014-04-06T17:30:00Z,27.8383,-97.0503,5.37,27.6,1111122 
NERRS,ioos:station:NOAA.NERRS:marscwq:1,2014-04-06T18:30:00Z,27.8383,-97.0503,5.38,28.3,1111122 
NERRS,ioos:station:NOAA.NERRS:marscwq:1,2014-04-06T19:30:00Z,27.8383,-97.0503,5.35,28.2,1111122 
NERRS,ioos:station:NOAA.NERRS:marscwq:1,2014-04-06T20:30:00Z,27.8383,-97.0503,5.35,28.7,1111122 
NERRS,ioos:station:NOAA.NERRS:marscwq:1,2014-04-06T22:30:00Z,27.8383,-97.0503,5.33,28.3,1111122 
NERRS,ioos:station:NOAA.NERRS:marscwq:1,2014-04-06T23:30:00Z,27.8383,-97.0503,5.34,28.8,1111122 
NERRS,ioos:station:NOAA.NERRS:marscwq:1,2014-04-07T00:30:00Z,27.8383,-97.0503,5.27,28.3,1111122 
NERRS,ioos:station:NOAA.NERRS:marscwq:1,2014-04-07T01:30:00Z,27.8383,-97.0503,5.23,28.8,1111122 
NERRS,ioos:station:NOAA.NERRS:marscwq:1,2014-04-07T02:30:00Z,27.8383,-97.0503,5.2,28.8,1111122 
NERRS,ioos:station:NOAA.NERRS:marscwq:1,2014-04-07T03:30:00Z,27.8383,-97.0503,5.33,28.1,1111122 
NERRS,ioos:station:NOAA.NERRS:marscwq:1,2014-04-07T04:30:00Z,27.8383,-97.0503,5.25,28.8,1111122 
NERRS,ioos:station:NOAA.NERRS:marscwq:1,2014-04-07T05:30:00Z,27.8383,-97.0503,5.18,28.4,1111122 
NERRS,ioos:station:NOAA.NERRS:marscwq:1,2014-04-07T06:30:00Z,27.8383,-97.0503,5.13,29.1,1111122 
NERRS,ioos:station:NOAA.NERRS:marscwq:1,2014-04-07T07:30:00Z,27.8383,-97.0503,5.1,29.1,1111122 
NERRS,ioos:station:NOAA.NERRS:marscwq:1,2014-04-07T08:30:00Z,27.8383,-97.0503,5.11,29.4,1111122 
NERRS,ioos:station:NOAA.NERRS:marscwq:1,2014-04-07T09:30:00Z,27.8383,-97.0503,5.13,29.7,1111122 
NERRS,ioos:station:NOAA.NERRS:marscwq:1,2014-04-07T10:30:00Z,27.8383,-97.0503,5.18,29.8,1111122 
NERRS,ioos:station:NOAA.NERRS:marscwq:1,2014-04-07T11:30:00Z,27.8383,-97.0503,5.2,29.8,1111122 
NERRS,ioos:station:NOAA.NERRS:marscwq:1,2014-04-07T12:30:00Z,27.8383,-97.0503,5.25,29.8,1111122 
NERRS,ioos:station:NOAA.NERRS:marscwq:1,2014-04-07T13:30:00Z,27.8383,-97.0503,5.43,29.2,1111122 
NERRS,ioos:station:NOAA.NERRS:marscwq:1,2014-04-07T14:30:00Z,27.8383,-97.0503,5.32,29.6,1111122 
NERRS,ioos:station:NOAA.NERRS:marscwq:1,2014-04-07T15:30:00Z,27.8383,-97.0503,5.33,28.9,1111122 
NERRS,ioos:station:NOAA.NERRS:marscwq:1,2014-04-07T16:30:00Z,27.8383,-97.0503,5.36,28.2,1111122 
NERRS,ioos:station:NOAA.NERRS:marscwq:1,2014-04-07T17:30:00Z,27.8383,-97.0503,5.4,27.6,1111122 
NERRS,ioos:station:NOAA.NERRS:marscwq:1,2014-04-07T18:30:00Z,27.8383,-97.0503,5.3,27.4,1111122 
NERRS,ioos:station:NOAA.NERRS:marscwq:1,2014-04-07T19:30:00Z,27.8383,-97.0503,5.31,27.3,1111122 
NERRS,ioos:station:NOAA.NERRS:marscwq:1,2014-04-07T20:30:00Z,27.8383,-97.0503,5.29,27.1,1111122 
NERRS,ioos:station:NOAA.NERRS:marscwq:1,2014-04-07T21:30:00Z,27.8383,-97.0503,5.29,27.0,1111122 
NERRS,ioos:station:NOAA.NERRS:marscwq:1,2014-04-07T22:30:00Z,27.8383,-97.0503,5.28,27.5,1111122 
NERRS,ioos:station:NOAA.NERRS:marscwq:1,2014-04-07T23:30:00Z,27.8383,-97.0503,5.22,26.9,1111122 
NERRS,ioos:station:NOAA.NERRS:marscwq:1,2014-04-08T00:30:00Z,27.8383,-97.0503,5.26,27.4,1111122 
NERRS,ioos:station:NOAA.NERRS:marscwq:1,2014-04-08T01:30:00Z,27.8383,-97.0503,5.2,27.9,1111122 
NERRS,ioos:station:NOAA.NERRS:marscwq:1,2014-04-08T02:30:00Z,27.8383,-97.0503,5.25,26.9,1111122 
NERRS,ioos:station:NOAA.NERRS:marscwq:1,2014-04-08T03:30:00Z,27.8383,-97.0503,5.17,27.5,1111122 
NERRS,ioos:station:NOAA.NERRS:marscwq:1,2014-04-08T04:30:00Z,27.8383,-97.0503,5.2,27.8,1111122 
NERRS,ioos:station:NOAA.NERRS:marscwq:1,2014-04-08T05:30:00Z,27.8383,-97.0503,5.12,28.3,1111122 
NERRS,ioos:station:NOAA.NERRS:marscwq:1,2014-04-08T06:30:00Z,27.8383,-97.0503,5.07,29.2,1111122 
NERRS,ioos:station:NOAA.NERRS:marscwq:1,2014-04-08T07:30:00Z,27.8383,-97.0503,5.14,29.9,1111122 
NERRS,ioos:station:NOAA.NERRS:marscwq:1,2014-04-08T08:30:00Z,27.8383,-97.0503,5.01,30.2,1111122 
NERRS,ioos:station:NOAA.NERRS:marscwq:1,2014-04-08T10:30:00Z,27.8383,-97.0503,5.01,30.5,1111122 
NERRS,ioos:station:NOAA.NERRS:marscwq:1,2014-04-08T11:30:00Z,27.8383,-97.0503,5.12,29.8,1111122 
NERRS,ioos:station:NOAA.NERRS:marscwq:1,2014-04-08T12:30:00Z,27.8383,-97.0503,5.14,30.4,1111122 
NERRS,ioos:station:NOAA.NERRS:marscwq:1,2014-04-08T13:30:00Z,27.8383,-97.0503,5.16,30.4,1111122 
NERRS,ioos:station:NOAA.NERRS:marscwq:1,2014-04-08T14:30:00Z,27.8383,-97.0503,5.24,29.8,1111122 
NERRS,ioos:station:NOAA.NERRS:marscwq:1,2014-04-08T15:30:00Z,27.8383,-97.0503,5.3,30.7,1111122 
NERRS,ioos:station:NOAA.NERRS:marscwq:1,2014-04-08T16:30:00Z,27.8383,-97.0503,5.28,30.6,1111122 
NERRS,ioos:station:NOAA.NERRS:marscwq:1,2014-04-08T17:30:00Z,27.8383,-97.0503,5.28,29.4,1111122 
NERRS,ioos:station:NOAA.NERRS:marscwq:1,2014-04-08T18:30:00Z,27.8383,-97.0503,5.32,29.1,1111122 
NERRS,ioos:station:NOAA.NERRS:marscwq:1,2014-04-08T19:30:00Z,27.8383,-97.0503,5.29,29.0,1111122 
NERRS,ioos:station:NOAA.NERRS:marscwq:1,2014-04-08T20:30:00Z,27.8383,-97.0503,5.23,28.5,1111122 
NERRS,ioos:station:NOAA.NERRS:marscwq:1,2014-04-08T21:30:00Z,27.8383,-97.0503,5.22,28.3,1111122 
NERRS,ioos:station:NOAA.NERRS:marscwq:1,2014-04-08T22:30:00Z,27.8383,-97.0503,5.17,28.9,1111122 
NERRS,ioos:station:NOAA.NERRS:marscwq:1,2014-04-08T23:30:00Z,27.8383,-97.0503,5.18,29.2,1111122 
NERRS,ioos:station:NOAA.NERRS:marscwq:1,2014-04-09T00:30:00Z,27.8383,-97.0503,5.16,30.1,1111122 
NERRS,ioos:station:NOAA.NERRS:marscwq:1,2014-04-09T01:30:00Z,27.8383,-97.0503,5.14,30.0,1111122 
NERRS,ioos:station:NOAA.NERRS:marscwq:1,2014-04-09T02:30:00Z,27.8383,-97.0503,5.15,29.2,1111122 
NERRS,ioos:station:NOAA.NERRS:marscwq:1,2014-04-09T03:30:00Z,27.8383,-97.0503,5.13,29.1,1111122 
NERRS,ioos:station:NOAA.NERRS:marscwq:1,2014-04-09T04:30:00Z,27.8383,-97.0503,5.19,30.1,1111122 
NERRS,ioos:station:NOAA.NERRS:marscwq:1,2014-04-09T05:30:00Z,27.8383,-97.0503,5.14,30.0,1111122 
NERRS,ioos:station:NOAA.NERRS:marscwq:1,2014-04-09T06:30:00Z,27.8383,-97.0503,5.03,30.1,1111122 
NERRS,ioos:station:NOAA.NERRS:marscwq:1,2014-04-09T07:30:00Z,27.8383,-97.0503,5.0,30.4,1111122 
NERRS,ioos:station:NOAA.NERRS:marscwq:1,2014-04-09T08:30:00Z,27.8383,-97.0503,4.96,30.8,1111122 
NERRS,ioos:station:NOAA.NERRS:marscwq:1,2014-04-09T09:30:00Z,27.8383,-97.0503,4.97,30.1,1111122 
NERRS,ioos:station:NOAA.NERRS:marscwq:1,2014-04-09T10:30:00Z,27.8383,-97.0503,4.97,30.8,1111122 
NERRS,ioos:station:NOAA.NERRS:marscwq:1,2014-04-09T11:30:00Z,27.8383,-97.0503,4.95,30.8,1111122 
NERRS,ioos:station:NOAA.NERRS:marscwq:1,2014-04-09T12:30:00Z,27.8383,-97.0503,4.98,30.1,1111122 
NERRS,ioos:station:NOAA.NERRS:marscwq:1,2014-04-09T13:30:00Z,27.8383,-97.0503,5.01,30.3,1111122 
NERRS,ioos:station:NOAA.NERRS:marscwq:1,2014-04-09T14:30:00Z,27.8383,-97.0503,5.05,30.8,1111122 
NERRS,ioos:station:NOAA.NERRS:marscwq:1,2014-04-09T15:30:00Z,27.8383,-97.0503,5.14,31.3,1111122 
NERRS,ioos:station:NOAA.NERRS:marscwq:1,2014-04-09T16:30:00Z,27.8383,-97.0503,5.16,31.2,1111122 
NERRS,ioos:station:NOAA.NERRS:marscwq:1,2014-04-09T17:30:00Z,27.8383,-97.0503,5.16,28.9,1111122 
NERRS,ioos:station:NOAA.NERRS:marscwq:1,2014-04-09T18:30:00Z,27.8383,-97.0503,5.15,29.4,1111122 
NERRS,ioos:station:NOAA.NERRS:marscwq:1,2014-04-09T19:30:00Z,27.8383,-97.0503,5.08,29.2,1111122 
NERRS,ioos:station:NOAA.NERRS:marscwq:1,2014-04-09T21:30:00Z,27.8383,-97.0503,5.11,28.6,1111122 
NERRS,ioos:station:NOAA.NERRS:marscwq:1,2014-04-09T22:30:00Z,27.8383,-97.0503,5.1,28.4,1111122 
NERRS,ioos:station:NOAA.NERRS:marscwq:1,2014-04-09T23:00:00Z,27.8383,-97.0503,5.1,28.7,1111122 
NERRS,ioos:station:NOAA.NERRS:marscwq:1,2014-04-16T13:30:00Z,27.8383,-97.0503,5.36,30.3,1111122 
NERRS,ioos:station:NOAA.NERRS:marscwq:1,2014-04-16T14:30:00Z,27.8383,-97.0503,5.34,30.4,1111122 
NERRS,ioos:station:NOAA.NERRS:marscwq:1,2014-04-16T15:30:00Z,27.8383,-97.0503,5.33,30.4,1111122 
NERRS,ioos:station:NOAA.NERRS:marscwq:1,2014-04-16T16:30:00Z,27.8383,-97.0503,5.37,30.4,1111122 
NERRS,ioos:station:NOAA.NERRS:marscwq:1,2014-04-16T17:30:00Z,27.8383,-97.0503,5.36,30.3,1111122 
NERRS,ioos:station:NOAA.NERRS:marscwq:1,2014-04-16T18:00:00Z,27.8383,-97.0503,5.34,30.3,1111122 
NERRS,ioos:station:NOAA.NERRS:marscwq:1,2014-04-16T19:30:00Z,27.8383,-97.0503,5.31,30.3,1111122 
NERRS,ioos:station:NOAA.NERRS:marscwq:1,2014-04-16T20:30:00Z,27.8383,-97.0503,5.32,30.3,1111122 
NERRS,ioos:station:NOAA.NERRS:marscwq:1,2014-04-16T21:30:00Z,27.8383,-97.0503,5.31,30.2,1111122 
NERRS,ioos:station:NOAA.NERRS:marscwq:1,2014-04-16T22:30:00Z,27.8383,-97.0503,5.25,30.2,1111122 
NERRS,ioos:station:NOAA.NERRS:marscwq:1,2014-04-16T23:30:00Z,27.8383,-97.0503,5.23,30.2,1111122 
NERRS,ioos:station:NOAA.NERRS:marscwq:1,2014-04-17T00:30:00Z,27.8383,-97.0503,5.13,30.2,1111122 
NERRS,ioos:station:NOAA.NERRS:marscwq:1,2014-04-17T01:30:00Z,27.8383,-97.0503,5.12,30.2,1111122 
NERRS,ioos:station:NOAA.NERRS:marscwq:1,2014-04-17T02:30:00Z,27.8383,-97.0503,5.07,30.3,1111122 
NERRS,ioos:station:NOAA.NERRS:marscwq:1,2014-04-17T03:30:00Z,27.8383,-97.0503,5.08,30.2,1111122 
NERRS,ioos:station:NOAA.NERRS:marscwq:1,2014-04-17T04:30:00Z,27.8383,-97.0503,5.13,30.3,1111122 
NERRS,ioos:station:NOAA.NERRS:marscwq:1,2014-04-17T05:30:00Z,27.8383,-97.0503,5.16,30.4,1111122 
NERRS,ioos:station:NOAA.NERRS:marscwq:1,2014-04-17T06:30:00Z,27.8383,-97.0503,5.25,30.5,1111122 
NERRS,ioos:station:NOAA.NERRS:marscwq:1,2014-04-17T07:30:00Z,27.8383,-97.0503,5.37,30.5,1111122 
NERRS,ioos:station:NOAA.NERRS:marscwq:1,2014-04-17T08:30:00Z,27.8383,-97.0503,5.4,30.3,1111122 
NERRS,ioos:station:NOAA.NERRS:marscwq:1,2014-04-17T09:30:00Z,27.8383,-97.0503,5.4,29.9,1111122 
NERRS,ioos:station:NOAA.NERRS:marscwq:1,2014-04-17T10:30:00Z,27.8383,-97.0503,5.42,30.1,1111122 
NERRS,ioos:station:NOAA.NERRS:marscwq:1,2014-04-17T11:30:00Z,27.8383,-97.0503,5.47,30.2,1111122 
NERRS,ioos:station:NOAA.NERRS:marscwq:1,2014-04-17T12:30:00Z,27.8383,-97.0503,5.46,30.3,1111122 
NERRS,ioos:station:NOAA.NERRS:marscwq:1,2014-04-17T13:30:00Z,27.8383,-97.0503,5.46,30.1,1111122 
NERRS,ioos:station:NOAA.NERRS:marscwq:1,2014-04-17T14:30:00Z,27.8383,-97.0503,5.46,30.2,1111122 
NERRS,ioos:station:NOAA.NERRS:marscwq:1,2014-04-17T15:30:00Z,27.8383,-97.0503,5.46,30.0,1111122 
NERRS,ioos:station:NOAA.NERRS:marscwq:1,2014-04-17T16:30:00Z,27.8383,-97.0503,5.54,30.0,1111122 
NERRS,ioos:station:NOAA.NERRS:marscwq:1,2014-04-17T17:30:00Z,27.8383,-97.0503,5.47,29.9,1111122 
NERRS,ioos:station:NOAA.NERRS:marscwq:1,2014-04-17T18:30:00Z,27.8383,-97.0503,5.46,29.8,1111122 
NERRS,ioos:station:NOAA.NERRS:marscwq:1,2014-04-17T19:30:00Z,27.8383,-97.0503,5.49,29.7,1111122 
NERRS,ioos:station:NOAA.NERRS:marscwq:1,2014-04-17T20:30:00Z,27.8383,-97.0503,5.47,29.7,1111122 
NERRS,ioos:station:NOAA.NERRS:marscwq:1,2014-04-17T21:30:00Z,27.8383,-97.0503,5.46,29.7,1111122 
NERRS,ioos:station:NOAA.NERRS:marscwq:1,2014-04-17T22:30:00Z,27.8383,-97.0503,5.43,29.8,1111122 
NERRS,ioos:station:NOAA.NERRS:marscwq:1,2014-04-17T23:30:00Z,27.8383,-97.0503,5.35,29.6,1111122 
NERRS,ioos:station:NOAA.NERRS:marscwq:1,2014-04-18T00:30:00Z,27.8383,-97.0503,5.32,29.6,1111122 
NERRS,ioos:station:NOAA.NERRS:marscwq:1,2014-04-18T01:30:00Z,27.8383,-97.0503,5.21,29.7,1111122 
NERRS,ioos:station:NOAA.NERRS:marscwq:1,2014-04-18T03:30:00Z,27.8383,-97.0503,5.16,29.9,1111122 
NERRS,ioos:station:NOAA.NERRS:marscwq:1,2014-04-18T04:30:00Z,27.8383,-97.0503,5.13,30.0,1111122 
NERRS,ioos:station:NOAA.NERRS:marscwq:1,2014-04-18T05:30:00Z,27.8383,-97.0503,5.23,30.3,1111122 
NERRS,ioos:station:NOAA.NERRS:marscwq:1,2014-04-18T06:30:00Z,27.8383,-97.0503,5.17,30.3,1111122 
NERRS,ioos:station:NOAA.NERRS:marscwq:1,2014-04-18T07:30:00Z,27.8383,-97.0503,5.31,30.4,1111122 
NERRS,ioos:station:NOAA.NERRS:marscwq:1,2014-04-18T08:30:00Z,27.8383,-97.0503,5.37,30.4,1111122 
NERRS,ioos:station:NOAA.NERRS:marscwq:1,2014-04-18T09:00:00Z,27.8383,-97.0503,5.43,30.4,1111122 
NERRS,ioos:station:NOAA.NERRS:marscwq:1,2014-04-18T10:30:00Z,27.8383,-97.0503,5.48,30.4,1111122 
NERRS,ioos:station:NOAA.NERRS:marscwq:1,2014-04-18T11:30:00Z,27.8383,-97.0503,5.51,29.7,1111122 
NERRS,ioos:station:NOAA.NERRS:marscwq:1,2014-04-18T12:30:00Z,27.8383,-97.0503,5.53,29.4,1111122 
NERRS,ioos:station:NOAA.NERRS:marscwq:1,2014-04-18T13:30:00Z,27.8383,-97.0503,5.53,29.6,1111122 
NERRS,ioos:station:NOAA.NERRS:marscwq:1,2014-04-18T14:30:00Z,27.8383,-97.0503,5.5,29.7,1111122 
NERRS,ioos:station:NOAA.NERRS:marscwq:1,2014-04-18T15:30:00Z,27.8383,-97.0503,5.52,29.8,1111122 
NERRS,ioos:station:NOAA.NERRS:marscwq:1,2014-04-18T16:30:00Z,27.8383,-97.0503,5.5,29.8,1111122 
NERRS,ioos:station:NOAA.NERRS:marscwq:1,2014-04-18T17:30:00Z,27.8383,-97.0503,5.41,29.8,1111122 
NERRS,ioos:station:NOAA.NERRS:marscwq:1,2014-04-18T18:30:00Z,27.8383,-97.0503,5.43,29.8,1111122 
NERRS,ioos:station:NOAA.NERRS:marscwq:1,2014-04-18T19:30:00Z,27.8383,-97.0503,5.4,29.8,1111122 
NERRS,ioos:station:NOAA.NERRS:marscwq:1,2014-04-18T20:30:00Z,27.8383,-97.0503,5.44,29.8,1111122 